STARLINK-1796 (46697 NORAD) Tracking and Keplerian Element Data
This shows tracking and keplerian element data for the satellite.
Feedback or suggestion? Click here.
Element | Value |
Catalog | 46697 |
Name | STARLINK-1796 |
Epoch Orbit | 1453 |
Epoch Day | 17.91667824 |
Epoch Year | 2021 |
RAAN | 41.7763 |
Inclination | 53.0574 |
Eccentricity | 0.0002062 |
Argument of Perigee | 52.0824 |
Mean Anonmoly | 122.3193 |
Mean Motion | 15.06385633 |
Decay Rate | 0.00036442 |
L1 | 1 46697U 20073AD 21017.91667824 .00036442 00000-0 24537-2 0 9990 |
L2 | 2 46697 53.0574 41.7763 0002062 52.0824 122.3193 15.06385633 14531 |
Live tracking and technical data element details for STARLINK-1796 (NORAD 46697). STARLINK-1796 can be tracked NOW for your location showing map with azimuth and elevation plus other details from your city location.
Track the satellite on the map from your city or location and see movement details for azimuth, elevation, latitude, longitude, range, height, and movement on the map or in text.
IsCatalogInMostPopularTable: catalog: 46697, numindb: 26
Update: records affected: 1
GetName: 46697 STARLINK-1796
Hit Count: updated at: Tue, 19 Jan 2021 01:26:39 GMT